CW0101 Weather Reports


Display with metric or nautical units.
time (UTC)temp
F
wind
direction
speed
MPH
gust
MPH
rain 1hr
in
rain 24hr
in
rain mn
in
humidity
%
barometer
mb
20260503211718 71 297 10.0 22.0 0.00 0.00 0.00 35 1004.2
20260503211213 71 328 8.0 17.0 0.00 0.00 0.00 35 1004.2
20260503210710 71 283 7.0 14.0 0.00 0.00 0.00 38 1004.3
20260503210207 71 321 12.0 21.0 0.00 0.00 0.00 36 1004.4
20260503205702 70 280 11.0 14.0 0.00 0.00 0.00 36 1004.3
20260503205158 71 318 13.0 21.0 0.00 0.00 0.00 35 1004.4
20260503204655 71 351 7.0 23.0 0.00 0.00 0.00 34 1004.6
20260503204153 71 352 8.0 18.0 0.00 0.00 0.00 34 1004.5
20260503203649 71 344 11.0 17.0 0.00 0.00 0.00 34 1004.7
20260503203147 71 285 8.0 16.0 0.00 0.00 0.00 35 1004.6
20260503202644 70 304 9.0 22.0 0.00 0.00 0.00 38 1004.9
20260503202142 70 300 12.0 20.0 0.00 0.00 0.00 37 1004.8
20260503201640 70 277 9.0 12.0 0.00 0.00 0.00 36 1004.8
20260503201137 70 307 14.0 24.0 0.00 0.00 0.00 36 1004.9
20260503200633 70 276 11.0 17.0 0.00 0.00 0.00 36 1004.7
20260503200130 71 271 13.0 15.0 0.00 0.00 0.00 35 1005.0
20260503195627 72 329 15.0 20.0 0.00 0.00 0.00 35 1005.0
20260503195124 70 240 7.0 14.0 0.00 0.00 0.00 36 1005.1
20260503194621 70 319 14.0 17.0 0.00 0.00 0.00 36 1005.0
20260503194116 71 347 14.0 14.0 0.00 0.00 0.00 36 1004.8
20260503193613 70 284 8.0 19.0 0.00 0.00 0.00 37 1004.9
20260503193108 70 282 14.0 22.0 0.00 0.00 0.00 36 1005.0
20260503192604 70 319 11.0 20.0 0.00 0.00 0.00 37 1004.6
20260503192100 69 268 6.0 10.0 0.00 0.00 0.00 38 1005.0
20260503191557 69 314 16.0 20.0 0.00 0.00 0.00 39 1005.1
20260503191054 69 303 12.0 20.0 0.00 0.00 0.00 39 1005.1
20260503190551 69 342 6.0 14.0 0.00 0.00 0.00 40 1005.0
20260503190048 69 308 9.0 15.0 0.00 0.00 0.00 41 1005.1
20260503185545 69 314 8.0 15.0 0.00 0.00 0.00 41 1005.2
20260503185044 70 301 7.0 17.0 0.00 0.00 0.00 41 1005.1
20260503184540 68 305 8.0 17.0 0.00 0.00 0.00 41 1005.4
20260503184037 68 266 13.0 20.0 0.00 0.00 0.00 41 1005.2
20260503183534 68 307 7.0 17.0 0.00 0.00 0.00 43 1005.3
20260503183031 68 290 5.0 12.0 0.00 0.00 0.00 42 1005.5
20260503182529 68 285 15.0 18.0 0.00 0.00 0.00 42 1005.4
20260503182027 68 267 6.0 13.0 0.00 0.00 0.00 42 1005.2
20260503181524 67 324 8.0 12.0 0.00 0.00 0.00 43 1005.6
20260503181020 67 322 5.0 10.0 0.00 0.00 0.00 42 1005.4
20260503180518 67 276 9.0 13.0 0.00 0.00 0.00 43 1005.6
20260503180015 66 314 3.0 7.0 0.00 0.00 0.00 43 1005.8
20260503175512 67 325 7.0 20.0 0.00 0.00 0.00 42 1005.8
20260503175009 66 290 5.0 13.0 0.00 0.00 0.00 45 1005.8
20260503174507 67 287 6.0 17.0 0.00 0.00 0.00 44 1006.1
20260503174002 66 320 5.0 16.0 0.00 0.00 0.00 45 1005.7
20260503173457 65 319 7.0 16.0 0.00 0.00 0.00 44 1005.7
20260503172954 66 283 5.0 8.0 0.00 0.00 0.00 45 1006.1
20260503172452 65 295 9.0 13.0 0.00 0.00 0.00 44 1006.3
20260503171948 65 320 3.0 14.0 0.00 0.00 0.00 44 1005.8
20260503171445 65 308 5.0 12.0 0.00 0.00 0.00 45 1006.2
20260503170943 64 304 7.0 18.0 0.00 0.00 0.00 44 1006.1
20260503170438 65 180 5.0 17.0 0.00 0.00 0.00 45 1006.2
20260503150831 62 274 4.0 12.0 0.00 0.00 0.00 46 1006.3
20260503150327 62 251 7.0 12.0 0.00 0.00 0.00 46 1006.4
20260503140251 60 239 9.0 17.0 0.00 0.00 0.00 48 1006.7
20260503131221 60 185 2.0 6.0 0.00 0.00 0.00 52 1006.6
20260503130719 60 255 3.0 3.0 0.00 0.00 0.00 52 1006.5
20260503130216 59 198 4.0 7.0 0.00 0.00 0.00 52 1006.8
20260503120141 52 154 5.0 7.0 0.00 0.00 0.00 64 1006.5
20260503110609 50 157 5.0 6.0 0.00 0.00 0.00 70 1006.9
20260503110107 50 160 3.0 5.0 0.00 0.00 0.00 73 1006.9
20260503090456 53 180 1.0 6.0 0.00 0.00 0.00 55 1007.3
20260503081422 54 232 3.0 5.0 0.00 0.00 0.00 54 1008.0
20260503080920 55 221 5.0 5.0 0.00 0.00 0.00 54 1008.4
20260503080416 55 174 0.0 3.0 0.00 0.00 0.00 54 1008.1
20260503072852 55 184 4.0 6.0 0.00 0.00 0.00 54 1008.3
20260503072349 55 214 3.0 7.0 0.00 0.00 0.00 54 1008.6
20260503071846 55 178 3.0 4.0 0.00 0.00 0.00 55 1008.6
20260503071343 55 172 3.0 7.0 0.00 0.00 0.00 56 1008.9
20260503070839 55 230 3.0 6.0 0.00 0.00 0.00 58 1008.6
20260503070337 55 200 1.0 2.0 0.00 0.00 0.00 59 1008.8
20260503060303 57 188 0.0 3.0 0.00 0.00 0.00 59 1009.6
20260503054750 58 253 2.0 7.0 0.00 0.00 0.00 54 1010.1
20260503054246 57 266 2.0 6.0 0.00 0.00 0.00 58 1010.2
20260503053744 58 193 0.0 3.0 0.00 0.00 0.00 52 1010.3
20260503053243 58 260 4.0 4.0 0.00 0.00 0.00 51 1010.3
20260503052738 58 257 4.0 5.0 0.00 0.00 0.00 51 1010.2
20260503052235 58 252 2.0 5.0 0.00 0.00 0.00 51 1010.4
20260503051730 58 239 3.0 5.0 0.00 0.00 0.00 51 1010.4
20260503051228 58 226 2.0 4.0 0.00 0.00 0.00 50 1010.3
20260503050724 59 257 3.0 8.0 0.00 0.00 0.00 50 1010.2
20260503050221 59 200 2.0 6.0 0.00 0.00 0.00 50 1010.4
20260503045719 59 235 3.0 8.0 0.00 0.00 0.00 49 1010.3
20260503045216 59 184 2.0 6.0 0.00 0.00 0.00 50 1009.9
20260503044712 58 239 4.0 9.0 0.00 0.00 0.00 49 1010.5
20260503044210 59 246 6.0 7.0 0.00 0.00 0.00 49 1010.6
20260503043706 59 277 3.0 6.0 0.00 0.00 0.00 48 1010.3
20260503043204 59 255 8.0 8.0 0.00 0.00 0.00 48 1010.7
20260503042700 59 266 3.0 7.0 0.00 0.00 0.00 48 1010.7
20260503042156 59 195 2.0 4.0 0.00 0.00 0.00 48 1010.7
20260503041652 58 200 1.0 4.0 0.00 0.00 0.00 48 1010.6
20260503041150 59 223 1.0 4.0 0.00 0.00 0.00 48 1010.8
20260503040648 58 221 2.0 3.0 0.00 0.00 0.00 48 1010.7
20260503040145 59 200 1.0 4.0 0.00 0.00 0.00 47 1010.8
20260503035641 59 188 0.0 5.0 0.00 0.00 0.00 47 1011.1
20260503035139 59 257 3.0 6.0 0.00 0.00 0.00 47 1010.7
20260503034637 58 268 2.0 4.0 0.00 0.00 0.00 47 1011.2
20260503034133 58 245 2.0 4.0 0.00 0.00 0.00 47 1011.3
20260503033630 58 263 0.0 4.0 0.00 0.00 0.00 48 1011.4
20260503033128 57 233 2.0 4.0 0.00 0.00 0.00 50 1011.3
20260503032626 57 176 2.0 2.0 0.00 0.00 0.00 49 1011.5
20260503032125 57 167 2.0 3.0 0.00 0.00 0.00 49 1011.7
20260503031622 57 237 2.0 5.0 0.00 0.00 0.00 49 1011.6
20260503031119 57 224 2.0 5.0 0.00 0.00 0.00 49 1011.5
20260503030615 57 247 3.0 5.0 0.00 0.00 0.00 49 1011.6
20260503030112 58 271 4.0 4.0 0.00 0.00 0.00 48 1011.7
20260503025609 58 200 0.0 3.0 0.00 0.00 0.00 48 1011.8
20260503025107 58 200 0.0 2.0 0.00 0.00 0.00 47 1011.6
20260503024603 58 215 0.0 3.0 0.00 0.00 0.00 47 1011.7
20260503024100 58 188 2.0 3.0 0.00 0.00 0.00 46 1011.9
20260503023557 58 219 2.0 2.0 0.00 0.00 0.00 46 1011.7
20260503023054 58 219 2.0 4.0 0.00 0.00 0.00 46 1011.9
20260503022550 58 188 1.0 3.0 0.00 0.00 0.00 45 1011.8
20260503022045 58 215 0.0 3.0 0.00 0.00 0.00 46 1011.8
20260503021542 58 228 2.0 3.0 0.00 0.00 0.00 45 1011.8
20260503021039 58 212 1.0 5.0 0.00 0.00 0.00 45 1011.9
20260503020536 58 200 1.0 3.0 0.00 0.00 0.00 46 1011.9
20260503020033 58 179 0.0 3.0 0.00 0.00 0.00 45 1011.8
20260503015529 58 219 2.0 3.0 0.00 0.00 0.00 45 1011.8
20260503015027 58 212 1.0 3.0 0.00 0.00 0.00 45 1011.8
20260503014522 58 174 2.0 3.0 0.00 0.00 0.00 45 1011.8
20260503014021 58 214 2.0 3.0 0.00 0.00 0.00 45 1011.7
20260503013518 58 221 2.0 4.0 0.00 0.00 0.00 45 1011.7
20260503013015 59 189 1.0 6.0 0.00 0.00 0.00 44 1011.7
20260503012513 59 210 3.0 3.0 0.00 0.00 0.00 45 1011.9
20260503012009 59 184 2.0 4.0 0.00 0.00 0.00 44 1011.9
20260503011506 59 205 1.0 3.0 0.00 0.00 0.00 44 1011.9
20260503011003 59 182 2.0 4.0 0.00 0.00 0.00 44 1011.7
20260503010459 59 185 4.0 4.0 0.00 0.00 0.00 43 1012.0
20260503005956 59 232 3.0 4.0 0.00 0.00 0.00 43 1012.1
20260503005453 60 203 3.0 5.0 0.00 0.00 0.00 42 1011.9
20260503004950 60 218 3.0 3.0 0.00 0.00 0.00 42 1011.9
20260503004447 60 181 0.0 3.0 0.00 0.00 0.00 41 1012.0
20260503003945 60 210 2.0 6.0 0.00 0.00 0.00 41 1012.0
20260503003441 61 194 3.0 3.0 0.00 0.00 0.00 40 1012.1
20260503002938 61 196 2.0 4.0 0.00 0.00 0.00 40 1012.2
20260503002435 61 216 0.0 5.0 0.00 0.00 0.00 40 1012.2
20260503001932 61 271 0.0 7.0 0.00 0.00 0.00 40 1012.2
20260503001428 61 225 4.0 5.0 0.00 0.00 0.00 39 1012.4
20260503000926 62 223 3.0 5.0 0.00 0.00 0.00 40 1012.3
20260503000423 61 236 3.0 6.0 0.00 0.00 0.00 39 1012.3
20260502235920 61 239 4.0 9.0 0.00 0.00 0.00 39 1012.3
20260502235417 61 259 4.0 11.0 0.00 0.00 0.00 39 1012.6
20260502234914 61 228 3.0 7.0 0.00 0.00 0.00 39 1012.5
20260502234411 61 261 6.0 13.0 0.00 0.00 0.00 39 1012.5
20260502233908 61 243 5.0 11.0 0.00 0.00 0.00 39 1012.6
20260502233403 61 235 6.0 11.0 0.00 0.00 0.00 38 1012.7
20260502232900 61 277 10.0 13.0 0.00 0.00 0.00 38 1012.9
20260502232357 62 257 5.0 7.0 0.00 0.00 0.00 39 1012.9
20260502231854 61 241 7.0 11.0 0.00 0.00 0.00 39 1013.0
20260502231351 61 205 3.0 12.0 0.00 0.00 0.00 39 1012.9
20260502230849 61 278 8.0 18.0 0.00 0.00 0.00 38 1013.0
20260502230347 62 265 11.0 12.0 0.00 0.00 0.00 38 1012.9
20260502225844 61 287 11.0 16.0 0.00 0.00 0.00 38 1013.1
20260502225340 61 282 6.0 15.0 0.00 0.00 0.00 38 1013.2
20260502224838 61 301 11.0 17.0 0.00 0.00 0.00 38 1013.0
20260502224334 62 269 12.0 17.0 0.00 0.00 0.00 37 1013.3
20260502223831 61 285 9.0 17.0 0.00 0.00 0.00 38 1013.2
20260502223323 63 257 6.0 17.0 0.00 0.00 0.00 37 1013.1
20260502222820 62 261 18.0 24.0 0.00 0.00 0.00 37 1013.4
20260502222318 62 258 7.0 12.0 0.00 0.00 0.00 37 1013.6
20260502221814 62 285 8.0 18.0 0.00 0.00 0.00 38 1013.4
20260502221310 62 257 7.0 13.0 0.00 0.00 0.00 37 1013.7
20260502220807 62 266 11.0 20.0 0.00 0.00 0.00 37 1013.4
20260502220303 62 253 5.0 19.0 0.00 0.00 0.00 37 1013.3
20260502215800 61 274 9.0 22.0 0.00 0.00 0.00 37 1013.6
20260502215257 60 305 10.0 18.0 0.00 0.00 0.00 37 1013.5
20260502214754 62 312 10.0 15.0 0.00 0.00 0.00 38 1013.7
20260502214250 62 297 8.0 15.0 0.00 0.00 0.00 37 1013.7
20260502213748 62 290 3.0 10.0 0.00 0.00 0.00 37 1013.7
20260502213245 62 298 7.0 19.0 0.00 0.00 0.00 37 1014.0
20260502212744 62 262 11.0 12.0 0.00 0.00 0.00 37 1014.2
20260502212242 62 257 8.0 14.0 0.00 0.00 0.00 36 1014.2